sat.trackr.live / text

‹ back to catalog

YAOGAN-30 03A

NORAD 43028 · 2017-075A

PAYLOAD ACTIVE UNKNOWN

§ Identity

Operator
Country
PRC
Launch date
2017-11-24
Launch site
XICLF
Launch vehicle
Mass (kg)
RCS (m²)

External: N2YO · Heavens-Above · Gunter

§ Orbital elements

Epoch: 2026-09-19T20:53:05.019936Z

Period
95.80 min
Inclination
34.9947°
Eccentricity
0.0001472
Mean motion
15.03208430 rev/d
Perigee alt
556.0 km
Apogee alt
558.0 km
Semi-major
6,935.1 km
B*
1.4264e-4
RAAN
53.1403°
Arg perigee
31.6513°
Mean anomaly
328.4283°
Rev number
48,150

§ Raw data

YAOGAN-30 03A1 43028U 17075A   26262.87019699  .00001940  00000+0  14264-3 0  99972 43028  34.9947  53.1403 0001472  31.6513 328.4283 15.03208430481508

JSON: /api/v1/satellites/43028 · /tle

For live sub-satellite position, see the globe view (requires WebGL).

§ Visibility from observer

Set your observer location to see the next 7 days of passes ≥ 10°. The values pass through the URL so the page stays shareable.

No JS? Fill the form by hand. The geolocation button needs JavaScript.